Regional Weather Roundup
Issued by NWS Charleston, SC

Current Version | Previous Version | Text Only | Print | Product List | Glossary On
Versions: 1 2 3 4 5 6 7 8 9 10 11 12 13 14 15 16 17 18 19 20 21 22 23 24 25 26 27 28 29 30 31 32 33 34 35 36 37 38 39 40 41 42 43 44 45 46 47 48 49 50
000 ASUS42 KCHS 290625 RWRCHS REGIONAL WEATHER ROUNDUP NATIONAL WEATHER SERVICE CHARLESTON SC 200 AM EDT FRI AUG 29 2014 NOTE: "FAIR" INDICATES FEW OR NO CLOUDS BELOW 12,000 FEET WITH NO SIGNIFICANT WEATHER AND/OR OBSTRUCTIONS TO VISIBILITY. NOT ALL STATIONS ARE QUALITY CONTROLLED BY THE NATIONAL WEATHER SERVICE. USE DATA WITH CAUTION...ESPECIALLY DEWPOINT OBSERVATIONS. SCZ027-030-031-034>040-042>050-290700- ...SOUTH CAROLINA... CITY SKY/WX TMP DP RH WIND PRES REMARKS N CHARLESTON FAIR 74 70 87 CALM 30.05S 6HR MIN TEMP: 73; 6HR MAX TEMP: 80; WATERFRONT PRK NOT AVBL FORT JOHNSON NOT AVBL MOUNT PLEASANT FAIR 70 70 100 CALM 30.04S JOHNS ISLAND CLEAR 72 70 94 CALM 30.04F PINOPOLIS N/A 75 68 78 SW5 29.97R MONCKS CORNER N/A 68 68 100 CALM 30.04F SUMMERVILLE NOT AVBL BEAUFORT MCAS FAIR 73 69 87 CALM 30.04F 6HR MIN TEMP: 71; 6HR MAX TEMP: 80; BEAUFORT ARPT FAIR 73 73 100 CALM 30.03F HILTON HEAD IS FAIR 77 73 88 CALM 30.04F GEORGETOWN NOT AVBL WALTERBORO FAIR 68 N/A N/A CALM 30.05S ORANGEBURG FAIR 69 63 81 CALM 30.05S 6HR MIN TEMP: 69; 6HR MAX TEMP: 82; BARNWELL FAIR 70 64 83 CALM 30.05F AIKEN FAIR 72 64 78 S5 30.08S MANNING FAIR 72 72 100 CALM 30.05S KINGSTREE NOT AVBL COLUMBIA FAIR 76 60 57 CALM 30.04R 6HR MIN TEMP: 74; 6HR MAX TEMP: 88; SUMTER FAIR 73 65 75 SW3 30.03S 6HR MIN TEMP: 73; 6HR MAX TEMP: 86; FLORENCE FAIR 73 65 75 SW3 30.04R 6HR MIN TEMP: 73; 6HR MAX TEMP: 85; MYRTLE BEACH FAIR 75 66 73 SW3 30.05S N MYRTLE BEACH FAIR 73 69 87 CALM 30.04S 6HR MIN TEMP: 73; 6HR MAX TEMP: 82; $$ GAZ063-065-086>088-099>101-113>116-118-119-134-136>141-150-290700- ...GEORGIA... CITY SKY/WX TMP DP RH WIND PRES REMARKS SAVANNAH ARPT FAIR 72 69 90 CALM 30.04F 6HR MIN TEMP: 72; 6HR MAX TEMP: 81; HUNTER AAF FAIR 73 72 96 CALM 30.02F 6HR MIN TEMP: 73; 6HR MAX TEMP: 80; FORT STEWART FAIR 71 68 90 CALM 30.03F 6HR MIN TEMP: 71; 6HR MAX TEMP: 82; STATESBORO NOT AVBL SYLVANIA FAIR 69 69 100 CALM 30.05F CLAXTON NOT AVBL THOMSON FAIR 70 66 87 CALM 30.08F AUGUSTA-BUSH FAIR 66 63 90 CALM 30.04S 6HR MIN TEMP: 64; 6HR MAX TEMP: 77; AUGUSTA-DANIEL FAIR 73 65 75 SE5 30.06R SWAINSBORO FAIR 73 72 94 CALM 30.05S VIDALIA N/A 73 70 88 S3 30.04S ALMA FAIR 70 68 93 CALM 30.03F 6HR MIN TEMP: 70; 6HR MAX TEMP: 79; WAYCROSS FAIR 76 72 86 S3 30.03F JESUP N/A 72 70 94 CALM 30.04S BRUNSWICK N/A 70 68 94 CALM 30.03F VSB 3/4 SAINT SIMONS FAIR 78 71 79 S5 30.03S 6HR MIN TEMP: 77; 6HR MAX TEMP: 80; $$ SCZ027-028-034-036>038-045-046-048>050-GAZ119-141-290700- ...LAKE AND SUPPLEMENTAL COASTAL OBSERVATIONS... STATION/POSITION TIME TEMP WIND PRES WAVE SWELL AIR SEA DIR/SP/G HT/PER HT/PER/DIR (UTC) (F) (DEG/KT/KT) (MB) (FT/S) (FT/S/D) UPR LAKE MARION NOT AVBL WINYAH BAY 0600 74 280/ 1 1017.0S LAKE MURRAY 0500 80 200/ 9/ 11 1016.6R ACE BASIN NERRS 0600 76 160/ 1 1017.0S FORT PULASKI 0600 79 130/ 2/ 3 1017.1F SAPELO ISLAND 0600 74 160/ 2 1017.0S $$ ANZ835-935-AMZ111-154-330-350-352-354-374-450-454-472-290700- ...C-MAN AND BUOY OBSERVATIONS... STATION/POSITION TIME TEMP WIND PRES WAVE SWELL AIR SEA DIR/SP/G HT/PER HT/PER/DIR (UTC) (F) (DEG/KT/KT) (MB) (FT/S) (FT/S/D) FOLLY BEACH CMAN 0600 81 180/ 11/ 12 1017.7F BUOY 41004 0600 82 83 180/ 10/ 12 1016.9F 4/ 9 3/ 9 BUOY 41008 0600 82 84 180/ 8/ 10 1017.0F 3/ 9 2/ 80/ 9 5E ST. MARYS GA 0600 83 N/A 3/ 9 2/110/11 FRYING PAN BUOY NOT AVBL BUOY 41025 0600 80 330/ 2/ 4 1017.3R 5/ 8 5/110/ 8 CAPE LOOKOUT NC 0600 80 230/ 6/ 8 1017.1R BUOY 41002 0510 81 81 250/ 2/ 4 1019.0R 4/ 8 5/ 80/ 8 BUOY 41010 0600 83 83 120/ 6/ 6 1017.1F 4/ 8 3/ 40/ 8 BUOY 41012 NOT AVBL ST AUGUSTINE FL 0600 81 160/ 12/ 13 1017.3F CAPERS NEARSHORE 0500 80 200/ 12/ 14 N/A FRIPP NEARSHORE NOT AVBL $$

USA.gov is the U.S. government's official web portal to all federal, state and local government web resources and services.